Regional Weather Roundup
Issued by NWS

Home | Current Version | Previous Version | Graphics & Text | Print | Product List | Glossary Off
Versions: 1 2 3 4 5 6 7 8 9 10 11 12 13 14 15 16 17 18 19 20 21 22 23 24 25 26 27 28 29 30 31 32 33 34 35 36 37 38 39 40 41 42 43 44 45 46 47 48 49 50

000
ASUS43 KTOP 070508
RWRKS

WEATHER ROUNDUP FOR KANSAS
NATIONAL WEATHER SERVICE GOODLAND KS
1200 AM CDT TUE JUL 07 2015

NOTE:  "FAIR" INDICATES FEW OR NO CLOUDS BELOW 12,000 FEET WITH NO
SIGNIFICANT WEATHER AND/OR OBSTRUCTIONS TO VISIBILITY.

KSZ001>006-013>018-027>032-041>047-070600-
NORTHWEST KANSAS

CITY           SKY/WX    TMP DP  RH WIND       PRES   REMARKS
GOODLAND       CLOUDY    63  55  75 NE7       30.22R HAZE
HAYS           CLOUDY    70  54  56 NE18      30.10R
HILL CITY      CLOUDY    66  55  67 N8        30.14R HAZE
RUSSELL        CLOUDY    70  61  73 N14       30.07R HAZE
$$

KSZ061>065-074>080-084>089-070600-
SOUTHWEST KANSAS

CITY           SKY/WX    TMP DP  RH WIND       PRES   REMARKS
DODGE CITY     CLOUDY    69  58  67 NE16G28   30.09S
ELKHART          N/A     68  57  68 N5          N/A
GARDEN CITY    MOCLDY    67  53  61 NE10      30.14R HAZE
GREAT BEND     CLOUDY    70  61  73 NE15      30.08S
LIBERAL        CLOUDY    70  63  78 NE9       30.13S
PRATT          LGT RAIN  68  64  88 N17G23    30.05S
$$

KSZ066>073-081>083-090>101-070600-
SOUTHEAST KANSAS

CITY           SKY/WX    TMP DP  RH WIND       PRES   REMARKS
CHANUTE        LGT RAIN  72  71  97 CALM      29.95R
COFFEYVILLE    LGT RAIN  72  71  97 W6        29.94R
HUTCHINSON     CLOUDY    69  65  86 N14G28    30.00S
MEDICINE LODGE   N/A     72  67  84 N15G25    29.99S
NEWTON         CLOUDY    68  63  83 NE20G31   30.01S
PARSONS        LGT RAIN  72  72 100 VRB5      29.94S
WICHITA INTL   LGT RAIN  73  71  93 NE7       29.96S FOG
WICHITA JABRA  LGT RAIN  71  70  96 NE5       29.97R
WICHITA MCCONL LGT RAIN  72  70  94 SE3       29.96S
WINFIELD       LGT RAIN  71  70  96 S14       29.97F
$$

KSZ007>012-019>026-033>040-048>060-102>105-070600-
NORTHEAST KANSAS

CITY           SKY/WX    TMP DP  RH WIND       PRES   REMARKS
CONCORDIA      CLOUDY    69  62  78 N15G21    30.05S HAZE
EMPORIA        LGT RAIN  70  69  97 S5        29.97R FOG
LAWRENCE       LGT RAIN  70  67  90 N17G24    29.95R
MANHATTAN      CLOUDY    71  67  87 NE8       30.00R
MARYSVILLE     CLOUDY    68  63  83 N9        30.03R
OLATHE IND     CLOUDY    72  71  97 W6        29.96R
OLATHE EXE     CLOUDY    71  70  96 W3        29.94R
SALINA         CLOUDY    72  66  81 N13       30.02F HAZE
TOPEKA BILLARD LGT RAIN  67  65  93 N14       29.97R FOG
TOPEKA FORBES  LGT RAIN  68  65  90 N13G21    29.98R FOG
$$


USA.gov is the U.S. government's official web portal to all federal, state and local government web resources and services.